Regional Weather Roundup
Issued by NWS Goodland, KS

Home | Current Version | Previous Version | Graphics & Text | Print | Product List | Glossary On
Versions: 1 2 3 4 5 6 7 8 9 10 11 12 13 14 15 16 17 18 19 20 21 22 23 24 25 26 27 28 29 30 31 32 33 34 35 36 37 38 39 40 41 42 43 44 45 46 47 48 49 50
000
ASUS43 KGLD 260559
RWRGLD

GOODLAND FORECAST AREA HOURLY WEATHER ROUNDUP
NATIONAL WEATHER SERVICE GOODLAND KS
1200 AM MDT THU APR 26 2018

...OFFICIAL OBSERVATIONS...

CITY           SKY/WX    TMP DP  RH WIND       PRES   REMARKS
GOODLAND KS    CLEAR     43  31  62 S16       29.99F
HILL CITY KS   CLOUDY    42  35  76 VRB3      30.02F
IMPERIAL NEB   MOCLDY    45  34  65 S13       29.97F
MCCOOK NEB     PTCLDY    43  34  70 S8        29.98F
AKRON CO       MOCLDY    48  31  51 SW16      29.97F
BURLINGTON CO  CLEAR     40  32  73 S15       30.01F
LIMON CO       PTCLDY    42  30  62 SE5       30.03F
$$

...UNOFFICIAL OBSERVATIONS...

CITY           SKY/WX    TMP DP  RH WIND       PRES   REMARKS
NORTON KS      CLEAR     45  36  70 S7        29.99
SHARON SPRINGS   N/A     40  33  77 S12         N/A
KIT CARSON CO    N/A     39  32  76 CALM        N/A
YUMA CO        FAIR      41  28  60 S9        29.97F
$$




USA.gov is the U.S. government's official web portal to all federal, state and local government web resources and services.